Volver al catálogo

CZ-6A DEB

ActivoPO
NORAD 60889·DEBRIS·🇨🇳 China

Lanzado Aug 6, 2024 desde Taiyuan Satellite Launch Center

Loading…

Próximos Pases (próximas 24 horas)

TLE

ActualizadoSource: Space-Track

Época: Sep 14, 2026, 18:07 UTC

1 60889U 24140KU  26257.75528998  .00000718  00000-0  30903-3 0  9991
2 60889  88.9967 264.3266 0034405 255.5202 104.2172 14.23350354106268

Sigue CZ-6A DEB en tiempo real con AllMySat

Download on the App Store